Preview of NWS' New Version of Forecast
This preview is not operational and should not be used for support decisions.

Regional Weather Roundup (RWR)

Issued by National Weather Service (NWS)

                            
000
ASPQ40 PGUM 242110
RWRPQ 
WEATHER ROUNDUP FOR THE MARIANAS AND MICRONESIA
NATIONAL WEATHER SERVICE TIYAN GU
700 AM CHST SUN AUG 25 2019

GUZ001>004-242200-
MARIANA ISLANDS-
  
CITY           SKY/WX    TMP DP  RH WIND       PRES   REMARKS
GUAM AIRPORT   MOSUNNY   81  75  83 SE8G20    29.80R                  
ANDERSEN AFB   PTSUNNY   81  75  83 S17G24    29.80R                  
ROTA AIRPORT   MOSUNNY   81  75  83 SE21      29.77R                  
TINIAN AP      PTSUNNY   81  75  83 SE8       29.79R                  
SAIPAN AP      MOSUNNY   82  75  78 SE14      29.81R                  

$$

PMZ161-242200-
REPUBLIC OF PALAU-
  
CITY           SKY/WX    TMP DP  RH WIND       PRES   REMARKS
KOROR AP       NOT AVBL                                               
KOROR WSO      NOT AVBL                                               

$$

PMZ171>174-242200-
FEDERATED STATES OF MICRONESIA-
  
CITY           SKY/WX    TMP DP  RH WIND       PRES   REMARKS
YAP AIRPORT    CLOUDY    77  75  94 VRB2      29.73R                  
CHUUK AP       CLOUDY    82  79  89 VRB3      29.82R HX  93           
POHNPEI AP     MOSUNNY   79  77  94 SE5       29.85R                  
POHNPEI WSO    PTSUNNY   79  77  94 SE3       29.89R                  
KOSRAE AP      NOT AVBL                                               

$$

PMZ181-242200-
REPUBLIC OF THE MARSHALL ISLANDS-
  
CITY           SKY/WX    TMP DP  RH WIND       PRES   REMARKS
KWAJALEIN AP   SUNNY     86  79  79 E9        29.86R HX  99           
MAJURO AP      MOSUNNY   86  77  74 E10       29.84R HX  97           
MAJURO WSO     MOSUNNY   86  77  74 E8        29.83S HX  97           

$$